星链-2238 (STARLINK-2238 )

导读

STARLINK-2238是美国SpaceX星链星座中的一颗卫星,于2021年5月15日发射升空,属于星链互联网卫星网络的组成部分。它依托SpaceX可回收火箭技术部署,旨在为全球提供高速低延迟互联网覆盖,服务包括偏远地区网络接入、移动场景联网等,是星链大规模组网建设中的一颗组网卫星。

基本信息
目录编号:
48584
目录名称:
STARLINK-2238
国际标识:
2021-041AH
轨道中心:
EARTH
卫星名称:
星链-2238
卫星全名:
星链-2238 (STARLINK-2238 )
卫星状态:
已陨落 最后检测时间 2026-05-01
发射日期:
2021-05-15 UTC
国别 :
美国 (US)
星等 :
--
该卫星已列入 空间交会检测服务 Space Conjunction Data Service (SCDS) ,当前飞行风险评估等级: 无高风险
轨道信息
数据来源 国际轨道数据
星历时间: 2026-05-02T02:19:37+0800
轨道信息已过期132天
半长轴: 6533.503km
偏心率: 0.0006214
轨道倾角: 53.036°
近地点辐角 289.227°
升交点赤经 239.845°
平近点角 70.811°
近地点: 151.306km
远地点: 159.426km
周期: 87.595分钟
每日圈数: 16.439313
详细信息
固有亮度:
5
最大亮度:
2.5
卫星平台:
Starlink V1.0
覆盖范围:
全球
运营商:
太空探索技术公司
运营商所在国:
美国
制造商(研发单位):
太空探索技术公司
制造商所在国:
美国
使用方式:
暂无
卫星简介
星链(Starlink)计划是由太空探索技术公司(SpaceX)提出的一个巨型低轨卫星互联网星座项目,计划在2019年至2024年间在太空搭建由约1.2万颗卫星组成的“星链”网络,其中1584颗将部署在地球上空550千米处的近地轨道,并从2020年开始工作。该卫星仍在工作。
与全量物体交会距离演化趋势
与全量物体交会风险概率演化趋势